START_TIME,STEP,MOV.,M35,t_acc.,PL05,t_acc.,PL06,t_acc.,PL07,t_acc.
1979-07-26 00:00:23.270 ,0,0,0.,4.8,28.,4.8,6.,4.8,4.,4.8
1979-07-26 00:00:28.070 ,0,0,0.,4.8,34.,4.8,14.,4.8,2.,4.8
1979-07-26 00:00:32.870 ,0,0,0.,4.8,36.,4.8,8.,4.8,3.,4.8
1979-07-26 00:00:37.670 ,0,0,0.,4.8,33.,4.8,8.,4.8,4.,4.8
1979-07-26 00:00:42.470 ,0,0,0.,4.8,38.,4.8,12.,4.8,5.,4.8
1979-07-26 00:01:35.270 ,0,0,0.,4.8,11.,4.8,0.,4.8,1.,4.8
1979-07-26 00:01:40.070 ,0,0,0.,4.8,9.,4.8,1.,4.8,0.,4.8
1979-07-26 00:01:44.870 ,0,0,0.,4.8,4.,4.8,0.,4.8,0.,4.8
1979-07-26 00:01:49.670 ,0,0,0.,4.8,2.,4.8,0.,4.8,0.,4.8
1979-07-26 00:01:54.470 ,0,0,0.,4.8,1.,4.8,0.,4.8,0.,4.8
1979-07-26 00:01:59.270 ,0,0,0.,4.8,3.,4.8,0.,4.8,0.,4.8
1979-07-26 00:02:04.070 ,0,0,0.,4.8,2.,4.8,0.,4.8,0.,4.8
1979-07-26 00:02:08.870 ,0,0,0.,4.8,4.,4.8,1.,4.8,0.,4.8
1979-07-26 00:02:13.670 ,0,0,0.,4.8,3.,4.8,1.,4.8,0.,4.8
1979-07-26 00:02:18.470 ,0,0,0.,4.8,4.,4.8,0.,4.8,0.,4.8
1979-07-26 00:02:23.270 ,3,0,0.,4.8,5.,4.8,0.,4.8,0.,4.8
1979-07-26 00:02:28.070 ,3,0,0.,4.8,4.,4.8,0.,4.8,0.,4.8
1979-07-26 00:02:32.870 ,3,0,0.,4.8,2.,4.8,1.,4.8,0.,4.8
1979-07-26 00:02:37.670 ,3,0,0.,4.8,1.,4.8,1.,4.8,0.,4.8
1979-07-26 00:02:42.470 ,3,0,0.,4.8,4.,4.8,0.,4.8,0.,4.8
1979-07-26 00:02:47.270 ,3,0,0.,4.8,6.,4.8,0.,4.8,0.,4.8
1979-07-26 00:02:52.070 ,3,0,0.,4.8,2.,4.8,1.,4.8,0.,4.8
1979-07-26 00:02:56.870 ,3,0,0.,4.8,3.,4.8,0.,4.8,0.,4.8
1979-07-26 00:03:01.670 ,3,0,0.,4.8,2.,4.8,0.,4.8,0.,4.8
1979-07-26 00:03:06.470 ,3,0,0.,4.8,7.,4.8,0.,4.8,0.,4.8
1979-07-26 00:03:11.270 ,4,0,0.,4.8,4.,4.8,0.,4.8,0.,4.8
1979-07-26 00:03:16.070 ,4,0,0.,4.8,3.,4.8,0.,4.8,0.,4.8
1979-07-26 00:03:20.870 ,4,0,0.,4.8,4.,4.8,0.,4.8,0.,4.8
1979-07-26 00:03:25.670 ,4,0,0.,4.8,10.,4.8,1.,4.8,0.,4.8
1979-07-26 00:03:30.470 ,4,0,0.,4.8,10.,4.8,0.,4.8,0.,4.8
1979-07-26 00:03:35.270 ,4,0,0.,4.8,7.,4.8,1.,4.8,0.,4.8
1979-07-26 00:03:40.070 ,4,0,0.,4.8,4.,4.8,1.,4.8,0.,4.8
1979-07-26 00:03:44.870 ,4,0,0.,4.8,5.,4.8,0.,4.8,0.,4.8
1979-07-26 00:03:49.670 ,4,0,0.,4.8,6.,4.8,0.,4.8,0.,4.8
1979-07-26 00:03:54.470 ,4,0,0.,4.8,9.,4.8,0.,4.8,0.,4.8
1979-07-26 00:03:59.270 ,5,0,0.,4.8,9.,4.8,1.,4.8,0.,4.8
1979-07-26 00:04:04.070 ,5,0,0.,4.8,3.,4.8,0.,4.8,0.,4.8
1979-07-26 00:04:08.870 ,5,0,0.,4.8,26.,4.8,5.,4.8,0.,4.8
1979-07-26 00:04:13.670 ,5,0,0.,4.8,33.,4.8,6.,4.8,2.,4.8
1979-07-26 00:04:18.470 ,5,0,0.,4.8,24.,4.8,0.,4.8,1.,4.8
1979-07-26 00:04:23.270 ,5,0,0.,4.8,30.,4.8,6.,4.8,0.,4.8
1979-07-26 00:04:28.070 ,5,0,0.,4.8,36.,4.8,4.,4.8,0.,4.8
1979-07-26 00:04:32.870 ,5,0,0.,4.8,22.,4.8,5.,4.8,0.,4.8
1979-07-26 00:04:37.670 ,5,0,0.,4.8,22.,4.8,2.,4.8,0.,4.8
1979-07-26 00:04:42.470 ,5,0,0.,4.8,31.,4.8,4.,4.8,0.,4.8
1979-07-26 00:04:47.270 ,6,0,0.,4.8,31.,4.8,4.,4.8,1.,4.8
1979-07-26 00:04:52.070 ,6,0,0.,4.8,32.,4.8,2.,4.8,1.,4.8
1979-07-26 00:04:56.870 ,6,0,0.,4.8,88.,4.8,7.,4.8,1.,4.8
1979-07-26 00:05:01.670 ,6,0,0.,4.8,92.,4.8,11.,4.8,0.,4.8
1979-07-26 00:05:06.470 ,6,0,0.,4.8,80.,4.8,6.,4.8,2.,4.8
1979-07-26 00:05:11.270 ,6,0,0.,4.8,98.,4.8,7.,4.8,2.,4.8
1979-07-26 00:05:16.070 ,6,0,0.,4.8,112.,4.8,16.,4.8,3.,4.8
1979-07-26 00:05:20.870 ,6,0,0.,4.8,74.,4.8,9.,4.8,4.,4.8
1979-07-26 00:05:25.670 ,6,0,0.,4.8,82.,4.8,9.,4.8,2.,4.8
1979-07-26 00:05:30.470 ,6,0,0.,4.8,88.,4.8,8.,4.8,2.,4.8
1979-07-26 00:05:35.270 ,7,0,0.,4.8,84.,4.8,1.,4.8,3.,4.8
1979-07-26 00:05:40.070 ,7,0,0.,4.8,82.,4.8,12.,4.8,2.,4.8
1979-07-26 00:05:44.870 ,7,0,0.,4.8,1.,4.8,1.,4.8,0.,4.8
1979-07-26 00:05:49.670 ,7,0,0.,4.8,0.,4.8,0.,4.8,1.,4.8
1979-07-26 00:05:54.470 ,7,0,0.,4.8,0.,4.8,0.,4.8,0.,4.8
1979-07-26 00:05:59.270 ,7,0,0.,4.8,1.,4.8,0.,4.8,0.,4.8
1979-07-26 00:06:04.070 ,7,0,0.,4.8,0.,4.8,0.,4.8,0.,4.8
1979-07-26 00:06:08.870 ,7,0,0.,4.8,1.,4.8,0.,4.8,0.,4.8
1979-07-26 00:06:13.670 ,7,0,0.,4.8,2.,4.8,0.,4.8,0.,4.8
1979-07-26 00:06:18.470 ,7,0,0.,4.8,1.,4.8,0.,4.8,0.,4.8
1979-07-26 00:06:23.270 ,7,0,0.,4.8,2.,4.8,0.,4.8,0.,4.8
1979-07-26 00:06:28.070 ,7,0,0.,4.8,0.,4.8,0.,4.8,0.,4.8
1979-07-26 00:06:32.870 ,7,0,0.,4.8,1.,4.8,0.,4.8,0.,4.8
1979-07-26 00:06:37.670 ,7,0,0.,4.8,1.,4.8,2.,4.8,0.,4.8
1979-07-26 00:06:42.470 ,7,0,0.,4.8,3.,4.8,0.,4.8,0.,4.8
1979-07-26 00:06:47.270 ,7,0,0.,4.8,0.,4.8,0.,4.8,1.,4.8
1979-07-26 00:06:52.070 ,7,0,0.,4.8,1.,4.8,0.,4.8,0.,4.8
1979-07-26 00:06:56.870 ,7,0,0.,4.8,0.,4.8,0.,4.8,1.,4.8
1979-07-26 00:07:01.670 ,7,0,0.,4.8,1.,4.8,0.,4.8,0.,4.8
1979-07-26 00:07:06.470 ,7,0,0.,4.8,1.,4.8,0.,4.8,0.,4.8
1979-07-26 00:07:11.270 ,6,0,0.,4.8,1.,4.8,0.,4.8,0.,4.8
1979-07-26 00:07:16.070 ,6,0,0.,4.8,2.,4.8,1.,4.8,0.,4.8
1979-07-26 00:07:20.870 ,6,0,0.,4.8,54.,4.8,3.,4.8,0.,4.8
1979-07-26 00:07:25.670 ,6,0,0.,4.8,51.,4.8,6.,4.8,1.,4.8
1979-07-26 00:07:30.470 ,6,0,0.,4.8,61.,4.8,9.,4.8,1.,4.8
1979-07-26 00:07:35.270 ,6,0,0.,4.8,48.,4.8,1.,4.8,4.,4.8
1979-07-26 00:07:40.070 ,6,0,0.,4.8,41.,4.8,3.,4.8,1.,4.8
1979-07-26 00:07:44.870 ,6,0,1.,4.8,40.,4.8,5.,4.8,3.,4.8
1979-07-26 00:07:49.670 ,6,0,0.,4.8,58.,4.8,9.,4.8,2.,4.8
1979-07-26 00:07:54.470 ,6,0,0.,4.8,54.,4.8,6.,4.8,3.,4.8
1979-07-26 00:07:59.270 ,5,0,0.,4.8,51.,4.8,10.,4.8,2.,4.8
1979-07-26 00:08:04.070 ,5,0,0.,4.8,46.,4.8,16.,4.8,2.,4.8
1979-07-26 00:08:08.870 ,5,0,0.,4.8,14.,4.8,3.,4.8,0.,4.8
1979-07-26 00:08:13.670 ,5,0,0.,4.8,13.,4.8,2.,4.8,0.,4.8
1979-07-26 00:08:18.470 ,5,0,0.,4.8,15.,4.8,4.,4.8,1.,4.8
1979-07-26 00:08:23.270 ,5,0,0.,4.8,16.,4.8,2.,4.8,0.,4.8
1979-07-26 00:08:28.070 ,5,0,0.,4.8,10.,4.8,2.,4.8,0.,4.8
1979-07-26 00:08:32.870 ,5,0,0.,4.8,13.,4.8,2.,4.8,3.,4.8
1979-07-26 00:08:37.670 ,5,0,0.,4.8,13.,4.8,2.,4.8,0.,4.8
1979-07-26 00:08:42.470 ,5,0,0.,4.8,11.,4.8,2.,4.8,2.,4.8
1979-07-26 00:08:47.270 ,4,0,0.,4.8,10.,4.8,4.,4.8,0.,4.8
1979-07-26 00:08:52.070 ,4,0,0.,4.8,26.,4.8,6.,4.8,0.,4.8
1979-07-26 00:08:56.870 ,4,0,0.,4.8,3.,4.8,1.,4.8,0.,4.8
1979-07-26 00:09:01.670 ,4,0,0.,4.8,6.,4.8,0.,4.8,0.,4.8
1979-07-26 00:09:06.470 ,4,0,0.,4.8,5.,4.8,0.,4.8,0.,4.8
1979-07-26 00:09:11.270 ,4,0,0.,4.8,12.,4.8,0.,4.8,0.,4.8
1979-07-26 00:09:16.070 ,4,0,0.,4.8,5.,4.8,0.,4.8,0.,4.8
1979-07-26 00:09:20.870 ,4,0,0.,4.8,5.,4.8,1.,4.8,0.,4.8
1979-07-26 00:09:25.670 ,4,0,0.,4.8,5.,4.8,0.,4.8,0.,4.8
1979-07-26 00:09:30.470 ,4,0,0.,4.8,8.,4.8,0.,4.8,0.,4.8
1979-07-26 00:09:35.270 ,3,0,0.,4.8,6.,4.8,2.,4.8,0.,4.8
1979-07-26 00:09:40.070 ,3,0,0.,4.8,3.,4.8,0.,4.8,1.,4.8
1979-07-26 00:09:44.870 ,3,0,0.,4.8,6.,4.8,3.,4.8,0.,4.8
1979-07-26 00:09:49.670 ,3,0,0.,4.8,2.,4.8,0.,4.8,0.,4.8
1979-07-26 00:09:54.470 ,3,0,0.,4.8,3.,4.8,0.,4.8,0.,4.8
1979-07-26 00:09:59.270 ,3,0,0.,4.8,3.,4.8,0.,4.8,0.,4.8
1979-07-26 00:10:04.070 ,3,0,0.,4.8,2.,4.8,0.,4.8,0.,4.8
1979-07-26 00:10:08.870 ,3,0,0.,4.8,5.,4.8,0.,4.8,0.,4.8
1979-07-26 00:10:13.670 ,3,0,0.,4.8,0.,4.8,0.,4.8,0.,4.8
1979-07-26 00:10:18.470 ,3,0,0.,4.8,2.,4.8,0.,4.8,0.,4.8
1979-07-26 00:10:23.270 ,2,0,0.,4.8,5.,4.8,0.,4.8,1.,4.8
1979-07-26 00:10:28.070 ,2,0,0.,4.8,5.,4.8,0.,4.8,0.,4.8
1979-07-26 00:10:32.870 ,2,0,0.,4.8,3.,4.8,0.,4.8,0.,4.8
1979-07-26 00:10:37.670 ,2,0,0.,4.8,0.,4.8,0.,4.8,0.,4.8
1979-07-26 00:10:42.470 ,2,0,0.,4.8,5.,4.8,0.,4.8,0.,4.8
1979-07-26 00:10:47.270 ,2,0,0.,4.8,4.,4.8,1.,4.8,1.,4.8
1979-07-26 00:10:52.070 ,2,0,0.,4.8,3.,4.8,0.,4.8,1.,4.8
1979-07-26 00:10:56.870 ,2,0,0.,4.8,8.,4.8,0.,4.8,0.,4.8
1979-07-26 00:11:01.670 ,2,0,0.,4.8,3.,4.8,0.,4.8,0.,4.8
1979-07-26 00:11:06.470 ,2,0,0.,4.8,1.,4.8,1.,4.8,0.,4.8
1979-07-26 00:11:11.270 ,1,0,0.,4.8,2.,4.8,0.,4.8,0.,4.8
1979-07-26 00:11:16.070 ,1,0,0.,4.8,7.,4.8,0.,4.8,0.,4.8
1979-07-26 00:11:20.870 ,1,0,0.,4.8,14.,4.8,3.,4.8,0.,4.8
1979-07-26 00:11:25.670 ,1,0,0.,4.8,21.,4.8,7.,4.8,2.,4.8
1979-07-26 00:11:30.470 ,1,0,0.,4.8,21.,4.8,4.,4.8,2.,4.8
1979-07-26 00:11:35.270 ,1,0,1.,4.8,22.,4.8,7.,4.8,1.,4.8
1979-07-26 00:11:40.070 ,1,0,0.,4.8,18.,4.8,2.,4.8,0.,4.8
1979-07-26 00:11:44.870 ,1,0,0.,4.8,14.,4.8,9.,4.8,1.,4.8
1979-07-26 00:11:49.670 ,1,0,0.,4.8,18.,4.8,0.,4.8,1.,4.8
1979-07-26 00:11:54.470 ,1,0,0.,4.8,19.,4.8,4.,4.8,0.,4.8
1979-07-26 00:11:59.270 ,0,0,0.,4.8,19.,4.8,4.,4.8,0.,4.8
1979-07-26 00:12:04.070 ,0,0,0.,4.8,22.,4.8,1.,4.8,2.,4.8
1979-07-26 00:12:08.870 ,0,0,0.,4.8,118.,4.8,26.,4.8,7.,4.8
1979-07-26 00:12:13.670 ,0,0,0.,4.8,100.,4.8,19.,4.8,4.,4.8
1979-07-26 00:12:18.470 ,0,0,0.,4.8,114.,4.8,18.,4.8,8.,4.8
1979-07-26 00:12:23.270 ,0,0,0.,4.8,124.,4.8,24.,4.8,6.,4.8
1979-07-26 00:12:28.070 ,0,0,0.,4.8,112.,4.8,17.,4.8,5.,4.8
1979-07-26 00:12:32.870 ,0,0,0.,4.8,102.,4.8,10.,4.8,7.,4.8
1979-07-26 00:12:37.670 ,0,0,0.,4.8,92.,4.8,17.,4.8,4.,4.8
1979-07-26 00:12:42.470 ,0,0,2.,4.8,110.,4.8,13.,4.8,6.,4.8
1979-07-26 00:12:47.270 ,0,0,0.,4.8,102.,4.8,14.,4.8,8.,4.8
1979-07-26 00:12:52.070 ,0,0,0.,4.8,104.,4.8,15.,4.8,6.,4.8
1979-07-26 00:12:56.870 ,0,0,1.,4.8,94.,4.8,14.,4.8,6.,4.8
1979-07-26 00:13:01.670 ,0,0,0.,4.8,90.,4.8,22.,4.8,5.,4.8
1979-07-26 00:13:06.470 ,0,0,1.,4.8,94.,4.8,19.,4.8,4.,4.8
1979-07-26 00:13:11.270 ,0,0,1.,4.8,96.,4.8,13.,4.8,9.,4.8
1979-07-26 00:13:16.070 ,0,0,0.,4.8,94.,4.8,15.,4.8,3.,4.8
1979-07-26 00:13:20.870 ,0,0,0.,4.8,76.,4.8,15.,4.8,5.,4.8
1979-07-26 00:13:25.670 ,0,0,0.,4.8,76.,4.8,18.,4.8,4.,4.8
1979-07-26 00:13:30.470 ,0,0,0.,4.8,64.,4.8,17.,4.8,7.,4.8
1979-07-26 00:13:35.270 ,1,0,1.,4.8,86.,4.8,21.,4.8,7.,4.8
1979-07-26 00:13:40.070 ,1,0,1.,4.8,88.,4.8,14.,4.8,3.,4.8
1979-07-26 00:13:44.870 ,1,0,0.,4.8,8.,4.8,1.,4.8,3.,4.8
1979-07-26 00:13:49.670 ,1,0,0.,4.8,13.,4.8,2.,4.8,1.,4.8
1979-07-26 00:13:54.470 ,1,0,0.,4.8,13.,4.8,1.,4.8,1.,4.8
1979-07-26 00:13:59.270 ,1,0,0.,4.8,11.,4.8,0.,4.8,1.,4.8
1979-07-26 00:14:04.070 ,1,0,0.,4.8,10.,4.8,0.,4.8,1.,4.8
1979-07-26 00:14:08.870 ,1,0,0.,4.8,8.,4.8,2.,4.8,0.,4.8
1979-07-26 00:14:13.670 ,1,0,0.,4.8,11.,4.8,1.,4.8,1.,4.8
1979-07-26 00:14:18.470 ,1,0,0.,4.8,14.,4.8,3.,4.8,0.,4.8
1979-07-26 00:14:23.270 ,2,0,0.,4.8,11.,4.8,3.,4.8,0.,4.8
1979-07-26 00:14:28.070 ,2,0,0.,4.8,15.,4.8,1.,4.8,0.,4.8
1979-07-26 00:14:32.870 ,2,0,0.,4.8,3.,4.8,1.,4.8,0.,4.8
1979-07-26 00:14:37.670 ,2,0,0.,4.8,2.,4.8,1.,4.8,0.,4.8
1979-07-26 00:14:42.470 ,2,0,0.,4.8,10.,4.8,0.,4.8,0.,4.8
1979-07-26 00:14:47.270 ,2,0,0.,4.8,5.,4.8,0.,4.8,0.,4.8
1979-07-26 00:14:52.070 ,2,0,0.,4.8,6.,4.8,0.,4.8,0.,4.8
1979-07-26 00:14:56.870 ,2,0,0.,4.8,4.,4.8,1.,4.8,1.,4.8
1979-07-26 00:15:01.670 ,2,0,0.,4.8,6.,4.8,0.,4.8,0.,4.8
1979-07-26 00:15:06.470 ,2,0,0.,4.8,4.,4.8,0.,4.8,0.,4.8
1979-07-26 00:15:11.270 ,3,0,0.,4.8,5.,4.8,1.,4.8,0.,4.8
1979-07-26 00:15:16.070 ,3,0,0.,4.8,8.,4.8,3.,4.8,0.,4.8
1979-07-26 00:15:20.870 ,3,0,0.,4.8,4.,4.8,0.,4.8,1.,4.8
1979-07-26 00:15:25.670 ,3,0,0.,4.8,7.,4.8,0.,4.8,0.,4.8
1979-07-26 00:15:30.470 ,3,0,0.,4.8,4.,4.8,0.,4.8,0.,4.8
1979-07-26 00:15:35.270 ,3,0,0.,4.8,5.,4.8,0.,4.8,1.,4.8
1979-07-26 00:15:40.070 ,3,0,,0,,0,,0,,0
1979-07-26 00:15:44.870 ,3,0,0.,4.8,2.,4.8,0.,4.8,0.,4.8
1979-07-26 00:15:49.670 ,3,0,0.,4.8,2.,4.8,1.,4.8,0.,4.8
1979-07-26 00:15:54.470 ,3,0,0.,4.8,2.,4.8,1.,4.8,0.,4.8
1979-07-26 00:15:59.270 ,4,0,0.,4.8,2.,4.8,1.,4.8,0.,4.8
1979-07-26 00:16:04.070 ,4,0,0.,4.8,4.,4.8,0.,4.8,0.,4.8
1979-07-26 00:16:08.870 ,4,0,0.,4.8,1.,4.8,0.,4.8,1.,4.8
1979-07-26 00:16:13.670 ,4,0,0.,4.8,5.,4.8,0.,4.8,0.,4.8
1979-07-26 00:16:18.470 ,4,0,0.,4.8,4.,4.8,0.,4.8,0.,4.8
1979-07-26 00:16:23.270 ,4,0,0.,4.8,3.,4.8,1.,4.8,0.,4.8
1979-07-26 00:16:28.070 ,4,0,0.,4.8,1.,4.8,0.,4.8,0.,4.8
1979-07-26 00:16:32.870 ,4,0,0.,4.8,5.,4.8,0.,4.8,0.,4.8
1979-07-26 00:16:37.670 ,4,0,0.,4.8,2.,4.8,0.,4.8,1.,4.8
1979-07-26 00:16:42.470 ,4,0,0.,4.8,1.,4.8,0.,4.8,0.,4.8
1979-07-26 00:16:47.270 ,5,0,0.,4.8,5.,4.8,0.,4.8,0.,4.8
1979-07-26 00:16:52.070 ,5,0,0.,4.8,0.,4.8,0.,4.8,0.,4.8
1979-07-26 00:16:56.870 ,5,0,0.,4.8,4.,4.8,2.,4.8,0.,4.8
1979-07-26 00:17:01.670 ,5,0,0.,4.8,3.,4.8,0.,4.8,1.,4.8
1979-07-26 00:17:06.470 ,5,0,0.,4.8,6.,4.8,0.,4.8,0.,4.8
1979-07-26 00:17:11.270 ,5,0,0.,4.8,7.,4.8,0.,4.8,1.,4.8
1979-07-26 00:17:16.070 ,5,0,0.,4.8,3.,4.8,1.,4.8,0.,4.8
1979-07-26 00:17:20.870 ,5,0,0.,4.8,5.,4.8,0.,4.8,0.,4.8
1979-07-26 00:17:25.670 ,5,0,0.,4.8,3.,4.8,1.,4.8,0.,4.8
1979-07-26 00:17:30.470 ,5,0,0.,4.8,2.,4.8,0.,4.8,2.,4.8
1979-07-26 00:17:35.270 ,6,0,0.,4.8,7.,4.8,0.,4.8,0.,4.8
1979-07-26 00:17:40.070 ,6,0,0.,4.8,6.,4.8,0.,4.8,0.,4.8
1979-07-26 00:17:44.870 ,6,0,0.,4.8,52.,4.8,3.,4.8,1.,4.8
1979-07-26 00:17:49.670 ,6,0,0.,4.8,33.,4.8,8.,4.8,1.,4.8
1979-07-26 00:17:54.470 ,6,0,0.,4.8,45.,4.8,5.,4.8,1.,4.8
1979-07-26 00:17:59.270 ,6,0,0.,4.8,42.,4.8,5.,4.8,1.,4.8
1979-07-26 00:18:04.070 ,6,0,0.,4.8,55.,4.8,7.,4.8,0.,4.8
1979-07-26 00:18:08.870 ,6,0,0.,4.8,51.,4.8,5.,4.8,0.,4.8
1979-07-26 00:18:13.670 ,6,0,0.,4.8,43.,4.8,7.,4.8,0.,4.8
1979-07-26 00:18:18.470 ,6,0,0.,4.8,39.,4.8,7.,4.8,1.,4.8
1979-07-26 00:18:23.270 ,7,0,0.,4.8,47.,4.8,7.,4.8,2.,4.8
1979-07-26 00:18:28.070 ,7,0,0.,4.8,36.,4.8,1.,4.8,3.,4.8
1979-07-26 00:18:32.870 ,7,0,0.,4.8,2.,4.8,0.,4.8,0.,4.8
1979-07-26 00:18:37.670 ,7,0,0.,4.8,3.,4.8,0.,4.8,0.,4.8
1979-07-26 00:18:42.470 ,7,0,0.,4.8,1.,4.8,0.,4.8,0.,4.8
1979-07-26 00:18:47.270 ,7,0,0.,4.8,5.,4.8,0.,4.8,0.,4.8
1979-07-26 00:18:52.070 ,7,0,0.,4.8,2.,4.8,0.,4.8,0.,4.8
1979-07-26 00:18:56.870 ,7,0,0.,4.8,2.,4.8,0.,4.8,0.,4.8
1979-07-26 00:19:01.670 ,7,0,0.,4.8,3.,4.8,0.,4.8,0.,4.8
1979-07-26 00:19:06.470 ,7,0,0.,4.8,1.,4.8,0.,4.8,0.,4.8
1979-07-26 00:19:11.270 ,3,1,0.,4.8,15.,4.8,2.,4.8,1.,4.8
1979-07-26 00:19:16.070 ,3,1,0.,4.8,41.,4.8,4.,4.8,2.,4.8
1979-07-26 00:19:20.870 ,3,1,0.,4.8,3.,4.8,1.,4.8,1.,4.8
1979-07-26 00:19:25.670 ,3,1,0.,4.8,0.,4.8,0.,4.8,0.,4.8
1979-07-26 00:19:30.470 ,3,1,0.,4.8,9.,4.8,0.,4.8,0.,4.8
1979-07-26 00:19:35.270 ,0,1,0.,4.8,4.,4.8,0.,4.8,0.,4.8
1979-07-26 00:19:40.070 ,0,1,0.,4.8,11.,4.8,1.,4.8,1.,4.8
1979-07-26 00:19:44.870 ,0,1,0.,4.8,62.,4.8,6.,4.8,0.,4.8
1979-07-26 00:19:49.670 ,0,1,0.,4.8,128.,4.8,19.,4.8,1.,4.8
1979-07-26 00:19:54.470 ,0,1,0.,4.8,160.,4.8,25.,4.8,6.,4.8
1979-07-26 00:19:59.270 ,4,1,0.,4.8,136.,4.8,16.,4.8,3.,4.8
1979-07-26 00:20:04.070 ,4,1,0.,4.8,58.,4.8,2.,4.8,1.,4.8
1979-07-26 00:20:08.870 ,4,1,0.,4.8,12.,4.8,2.,4.8,0.,4.8
1979-07-26 00:20:13.670 ,4,1,0.,4.8,3.,4.8,0.,4.8,0.,4.8
1979-07-26 00:20:18.470 ,4,1,0.,4.8,4.,4.8,0.,4.8,0.,4.8
1979-07-26 00:20:23.270 ,7,1,0.,4.8,3.,4.8,0.,4.8,0.,4.8
1979-07-26 00:20:28.070 ,7,1,0.,4.8,5.,4.8,0.,4.8,0.,4.8
1979-07-26 00:20:32.870 ,7,1,0.,4.8,26.,4.8,0.,4.8,0.,4.8
1979-07-26 00:20:37.670 ,7,1,0.,4.8,5.,4.8,1.,4.8,0.,4.8
1979-07-26 00:20:42.470 ,7,1,0.,4.8,1.,4.8,0.,4.8,0.,4.8
1979-07-26 00:20:47.270 ,3,1,0.,4.8,6.,4.8,0.,4.8,0.,4.8
1979-07-26 00:20:52.070 ,3,1,0.,4.8,29.,4.8,2.,4.8,0.,4.8
1979-07-26 00:20:56.870 ,3,1,0.,4.8,2.,4.8,0.,4.8,0.,4.8
1979-07-26 00:21:01.670 ,3,1,0.,4.8,6.,4.8,1.,4.8,0.,4.8
1979-07-26 00:21:06.470 ,3,1,0.,4.8,3.,4.8,1.,4.8,0.,4.8
1979-07-26 00:21:11.270 ,0,1,0.,4.8,3.,4.8,0.,4.8,0.,4.8
1979-07-26 00:21:16.070 ,0,1,0.,4.8,9.,4.8,0.,4.8,0.,4.8
1979-07-26 00:21:20.870 ,0,1,0.,4.8,72.,4.8,10.,4.8,1.,4.8
1979-07-26 00:21:25.670 ,0,1,0.,4.8,140.,4.8,17.,4.8,7.,4.8
1979-07-26 00:21:30.470 ,0,1,1.,4.8,136.,4.8,17.,4.8,10.,4.8
1979-07-26 00:21:35.270 ,4,1,2.,4.8,124.,4.8,11.,4.8,5.,4.8
1979-07-26 00:21:40.070 ,4,1,0.,4.8,90.,4.8,12.,4.8,2.,4.8
1979-07-26 00:21:44.870 ,4,1,0.,4.8,9.,4.8,0.,4.8,0.,4.8
1979-07-26 00:21:49.670 ,4,1,0.,4.8,2.,4.8,0.,4.8,1.,4.8
1979-07-26 00:21:54.470 ,4,1,0.,4.8,5.,4.8,1.,4.8,0.,4.8
1979-07-26 00:21:59.270 ,7,1,0.,4.8,4.,4.8,0.,4.8,0.,4.8
1979-07-26 00:22:04.070 ,7,1,0.,4.8,3.,4.8,0.,4.8,0.,4.8
1979-07-26 00:22:08.870 ,7,1,0.,4.8,16.,4.8,3.,4.8,1.,4.8
1979-07-26 00:22:13.670 ,7,1,0.,4.8,4.,4.8,1.,4.8,0.,4.8
1979-07-26 00:22:18.470 ,7,1,0.,4.8,1.,4.8,1.,4.8,0.,4.8
1979-07-26 00:22:23.270 ,3,1,0.,4.8,4.,4.8,1.,4.8,0.,4.8
1979-07-26 00:22:28.070 ,3,1,0.,4.8,17.,4.8,6.,4.8,3.,4.8
1979-07-26 00:22:32.870 ,3,1,0.,4.8,1.,4.8,0.,4.8,0.,4.8
1979-07-26 00:22:37.670 ,3,1,0.,4.8,6.,4.8,0.,4.8,0.,4.8
1979-07-26 00:22:42.470 ,3,1,0.,4.8,5.,4.8,1.,4.8,1.,4.8
1979-07-26 00:22:47.270 ,0,1,0.,4.8,4.,4.8,1.,4.8,0.,4.8
1979-07-26 00:22:52.070 ,0,1,0.,4.8,17.,4.8,1.,4.8,0.,4.8
1979-07-26 00:22:56.870 ,0,1,0.,4.8,76.,4.8,9.,4.8,1.,4.8
1979-07-26 00:23:01.670 ,0,1,0.,4.8,128.,4.8,20.,4.8,3.,4.8
1979-07-26 00:23:06.470 ,0,1,2.,4.8,148.,4.8,13.,4.8,4.,4.8
1979-07-26 00:23:11.270 ,4,1,1.,4.8,120.,4.8,17.,4.8,1.,4.8
1979-07-26 00:23:16.070 ,4,1,0.,4.8,68.,4.8,8.,4.8,4.,4.8
1979-07-26 00:23:20.870 ,4,1,0.,4.8,21.,4.8,1.,4.8,0.,4.8
1979-07-26 00:23:25.670 ,4,1,0.,4.8,4.,4.8,1.,4.8,1.,4.8
1979-07-26 00:23:30.470 ,4,1,0.,4.8,2.,4.8,0.,4.8,0.,4.8
1979-07-26 00:23:35.270 ,7,1,0.,4.8,3.,4.8,0.,4.8,0.,4.8
1979-07-26 00:23:40.070 ,7,1,0.,4.8,5.,4.8,0.,4.8,0.,4.8
1979-07-26 00:23:44.870 ,7,1,0.,4.8,4.,4.8,3.,4.8,1.,4.8
1979-07-26 00:23:49.670 ,7,1,0.,4.8,4.,4.8,0.,4.8,0.,4.8
1979-07-26 00:23:54.470 ,7,1,0.,4.8,2.,4.8,0.,4.8,0.,4.8
1979-07-26 00:23:59.270 ,3,1,0.,4.8,3.,4.8,0.,4.8,0.,4.8
1979-07-26 00:24:04.070 ,3,1,0.,4.8,9.,4.8,2.,4.8,0.,4.8
1979-07-26 00:24:08.870 ,3,1,0.,4.8,4.,4.8,0.,4.8,1.,4.8
1979-07-26 00:24:13.670 ,3,1,0.,4.8,1.,4.8,1.,4.8,0.,4.8
1979-07-26 00:24:18.470 ,3,1,0.,4.8,6.,4.8,0.,4.8,0.,4.8
1979-07-26 00:24:23.270 ,0,1,0.,4.8,4.,4.8,2.,4.8,0.,4.8
1979-07-26 00:24:28.070 ,0,1,0.,4.8,28.,4.8,2.,4.8,0.,4.8
1979-07-26 00:24:32.870 ,0,1,0.,4.8,90.,4.8,7.,4.8,2.,4.8
1979-07-26 00:24:37.670 ,0,1,0.,4.8,122.,4.8,19.,4.8,4.,4.8
1979-07-26 00:24:42.470 ,0,1,0.,4.8,140.,4.8,17.,4.8,6.,4.8
1979-07-26 00:24:47.270 ,4,1,0.,4.8,128.,4.8,17.,4.8,4.,4.8
1979-07-26 00:24:52.070 ,4,1,0.,4.8,86.,4.8,7.,4.8,1.,4.8
1979-07-26 00:24:56.870 ,4,1,0.,4.8,15.,4.8,3.,4.8,1.,4.8
1979-07-26 00:25:01.670 ,4,1,0.,4.8,5.,4.8,1.,4.8,0.,4.8
1979-07-26 00:25:06.470 ,4,1,0.,4.8,6.,4.8,0.,4.8,1.,4.8
1979-07-26 00:25:11.270 ,7,1,0.,4.8,1.,4.8,0.,4.8,0.,4.8
1979-07-26 00:25:16.070 ,7,1,0.,4.8,2.,4.8,0.,4.8,0.,4.8
1979-07-26 00:25:20.870 ,7,1,0.,4.8,4.,4.8,0.,4.8,1.,4.8
1979-07-26 00:25:25.670 ,7,1,0.,4.8,0.,4.8,0.,4.8,0.,4.8
1979-07-26 00:25:30.470 ,7,1,0.,4.8,1.,4.8,0.,4.8,0.,4.8
1979-07-26 00:25:35.270 ,3,1,0.,4.8,2.,4.8,0.,4.8,0.,4.8
1979-07-26 00:25:40.070 ,3,1,0.,4.8,6.,4.8,1.,4.8,0.,4.8
1979-07-26 00:25:44.870 ,3,1,0.,4.8,1.,4.8,1.,4.8,0.,4.8
1979-07-26 00:25:49.670 ,3,1,0.,4.8,5.,4.8,0.,4.8,0.,4.8
1979-07-26 00:25:54.470 ,3,1,0.,4.8,1.,4.8,1.,4.8,1.,4.8
1979-07-26 00:25:59.270 ,0,1,0.,4.8,9.,4.8,2.,4.8,0.,4.8
1979-07-26 00:26:04.070 ,0,1,0.,4.8,32.,4.8,4.,4.8,0.,4.8
1979-07-26 00:26:08.870 ,0,1,0.,4.8,80.,4.8,12.,4.8,3.,4.8
1979-07-26 00:26:13.670 ,0,1,0.,4.8,128.,4.8,13.,4.8,7.,4.8
1979-07-26 00:26:18.470 ,0,1,2.,4.8,156.,4.8,25.,4.8,5.,4.8
1979-07-26 00:26:23.270 ,4,1,0.,4.8,128.,4.8,21.,4.8,5.,4.8
1979-07-26 00:26:28.070 ,4,1,0.,4.8,106.,4.8,13.,4.8,2.,4.8
1979-07-26 00:26:32.870 ,4,1,0.,4.8,23.,4.8,8.,4.8,1.,4.8
1979-07-26 00:26:37.670 ,4,1,0.,4.8,10.,4.8,2.,4.8,0.,4.8
1979-07-26 00:26:42.470 ,4,1,0.,4.8,2.,4.8,0.,4.8,0.,4.8
1979-07-26 00:26:47.270 ,7,1,0.,4.8,2.,4.8,0.,4.8,0.,4.8
1979-07-26 00:26:52.070 ,7,1,0.,4.8,5.,4.8,0.,4.8,0.,4.8
1979-07-26 00:26:56.870 ,7,1,0.,4.8,4.,4.8,0.,4.8,1.,4.8
1979-07-26 00:27:01.670 ,7,1,0.,4.8,2.,4.8,0.,4.8,0.,4.8
1979-07-26 00:27:06.470 ,7,1,0.,4.8,0.,4.8,0.,4.8,0.,4.8
1979-07-26 00:27:11.270 ,3,1,0.,4.8,0.,4.8,0.,4.8,0.,4.8
1979-07-26 00:27:16.070 ,3,1,0.,4.8,9.,4.8,0.,4.8,0.,4.8
1979-07-26 00:27:20.870 ,3,1,0.,4.8,2.,4.8,0.,4.8,0.,4.8
1979-07-26 00:27:25.670 ,3,1,0.,4.8,1.,4.8,0.,4.8,0.,4.8
1979-07-26 00:27:30.470 ,3,1,0.,4.8,2.,4.8,0.,4.8,0.,4.8
1979-07-26 00:27:35.270 ,0,1,0.,4.8,11.,4.8,5.,4.8,0.,4.8
1979-07-26 00:27:40.070 ,0,1,0.,4.8,29.,4.8,3.,4.8,0.,4.8
1979-07-26 00:27:44.870 ,0,1,0.,4.8,72.,4.8,9.,4.8,3.,4.8
1979-07-26 00:27:49.670 ,0,1,0.,4.8,120.,4.8,9.,4.8,2.,4.8
1979-07-26 00:27:54.470 ,0,1,0.,4.8,136.,4.8,16.,4.8,8.,4.8
1979-07-26 00:27:59.270 ,4,1,0.,4.8,112.,4.8,21.,4.8,1.,4.8
1979-07-26 00:28:04.070 ,4,1,1.,4.8,92.,4.8,7.,4.8,2.,4.8
1979-07-26 00:28:08.870 ,4,1,0.,4.8,28.,4.8,5.,4.8,2.,4.8
1979-07-26 00:28:13.670 ,4,1,0.,4.8,9.,4.8,0.,4.8,0.,4.8
1979-07-26 00:28:18.470 ,4,1,0.,4.8,2.,4.8,0.,4.8,0.,4.8
1979-07-26 00:28:23.270 ,7,1,0.,4.8,2.,4.8,0.,4.8,0.,4.8
1979-07-26 00:28:28.070 ,7,1,0.,4.8,4.,4.8,0.,4.8,0.,4.8
1979-07-26 00:28:32.870 ,7,1,0.,4.8,6.,4.8,1.,4.8,0.,4.8
1979-07-26 00:28:37.670 ,7,1,0.,4.8,1.,4.8,0.,4.8,0.,4.8
1979-07-26 00:28:42.470 ,7,1,0.,4.8,1.,4.8,0.,4.8,0.,4.8
1979-07-26 00:28:47.270 ,3,1,0.,4.8,0.,4.8,0.,4.8,1.,4.8
1979-07-26 00:28:52.070 ,3,1,0.,4.8,5.,4.8,2.,4.8,0.,4.8
1979-07-26 00:28:56.870 ,3,1,0.,4.8,4.,4.8,0.,4.8,0.,4.8
1979-07-26 00:29:01.670 ,3,1,0.,4.8,3.,4.8,2.,4.8,0.,4.8
1979-07-26 00:29:06.470 ,3,1,0.,4.8,3.,4.8,1.,4.8,1.,4.8
1979-07-26 00:29:11.270 ,0,1,0.,4.8,19.,4.8,1.,4.8,0.,4.8
1979-07-26 00:29:16.070 ,0,1,0.,4.8,34.,4.8,12.,4.8,2.,4.8
1979-07-26 00:29:20.870 ,0,1,0.,4.8,106.,4.8,11.,4.8,7.,4.8
1979-07-26 00:29:25.670 ,0,1,0.,4.8,122.,4.8,26.,4.8,5.,4.8
1979-07-26 00:29:30.470 ,0,1,0.,4.8,126.,4.8,23.,4.8,6.,4.8
1979-07-26 00:29:35.270 ,0,0,0.,4.8,102.,4.8,17.,4.8,9.,4.8
1979-07-26 00:29:40.070 ,0,0,0.,4.8,110.,4.8,22.,4.8,4.,4.8
1979-07-26 00:29:44.870 ,0,0,0.,4.8,44.,4.8,2.,4.8,5.,4.8
1979-07-26 00:29:49.670 ,0,0,0.,4.8,13.,4.8,2.,4.8,1.,4.8
1979-07-26 00:29:54.470 ,0,0,0.,4.8,6.,4.8,0.,4.8,0.,4.8
1979-07-26 00:29:59.270 ,0,0,0.,4.8,3.,4.8,1.,4.8,0.,4.8
1979-07-26 00:30:04.070 ,0,0,0.,4.8,2.,4.8,0.,4.8,1.,4.8
1979-07-26 00:30:08.870 ,0,0,0.,4.8,8.,4.8,2.,4.8,0.,4.8
1979-07-26 00:30:13.670 ,0,0,0.,4.8,0.,4.8,1.,4.8,1.,4.8
1979-07-26 00:30:18.470 ,0,0,0.,4.8,0.,4.8,0.,4.8,0.,4.8
1979-07-26 00:30:23.270 ,5,0,0.,4.8,6.,4.8,2.,4.8,1.,4.8
1979-07-26 00:30:28.070 ,5,0,0.,4.8,5.,4.8,0.,4.8,1.,4.8
1979-07-26 00:30:32.870 ,5,0,0.,4.8,2.,4.8,0.,4.8,0.,4.8
1979-07-26 00:30:37.670 ,5,0,0.,4.8,0.,4.8,0.,4.8,0.,4.8
1979-07-26 00:30:42.470 ,5,0,0.,4.8,5.,4.8,0.,4.8,0.,4.8
1979-07-26 00:30:47.270 ,5,0,0.,4.8,3.,4.8,0.,4.8,0.,4.8
1979-07-26 00:30:52.070 ,5,0,0.,4.8,2.,4.8,0.,4.8,0.,4.8
1979-07-26 00:30:56.870 ,5,0,0.,4.8,5.,4.8,0.,4.8,0.,4.8
1979-07-26 00:31:01.670 ,5,0,0.,4.8,1.,4.8,0.,4.8,0.,4.8
1979-07-26 00:31:06.470 ,5,0,0.,4.8,4.,4.8,0.,4.8,0.,4.8
1979-07-26 00:31:11.270 ,4,0,0.,4.8,2.,4.8,0.,4.8,0.,4.8
1979-07-26 00:31:16.070 ,4,0,0.,4.8,4.,4.8,0.,4.8,0.,4.8
1979-07-26 00:31:20.870 ,4,0,0.,4.8,5.,4.8,0.,4.8,0.,4.8
1979-07-26 00:31:25.670 ,4,0,0.,4.8,1.,4.8,0.,4.8,0.,4.8
1979-07-26 00:31:30.470 ,4,0,1.,4.8,2.,4.8,0.,4.8,0.,4.8
1979-07-26 00:31:35.270 ,4,0,0.,4.8,4.,4.8,1.,4.8,0.,4.8
1979-07-26 00:31:40.070 ,4,0,0.,4.8,6.,4.8,0.,4.8,0.,4.8
1979-07-26 00:31:44.870 ,4,0,0.,4.8,4.,4.8,1.,4.8,1.,4.8
1979-07-26 00:31:49.670 ,4,0,0.,4.8,5.,4.8,0.,4.8,0.,4.8
1979-07-26 00:31:54.470 ,4,0,0.,4.8,4.,4.8,0.,4.8,1.,4.8
1979-07-26 00:31:59.270 ,3,0,0.,4.8,5.,4.8,0.,4.8,0.,4.8
1979-07-26 00:32:04.070 ,3,0,0.,4.8,8.,4.8,0.,4.8,1.,4.8
1979-07-26 00:32:08.870 ,3,0,1.,4.8,21.,4.8,1.,4.8,2.,4.8
1979-07-26 00:32:13.670 ,3,0,0.,4.8,9.,4.8,2.,4.8,1.,4.8
1979-07-26 00:32:18.470 ,3,0,0.,4.8,12.,4.8,4.,4.8,2.,4.8
1979-07-26 00:32:23.270 ,3,0,0.,4.8,10.,4.8,1.,4.8,1.,4.8
1979-07-26 00:32:28.070 ,3,0,0.,4.8,19.,4.8,2.,4.8,2.,4.8
1979-07-26 00:32:32.870 ,3,0,0.,4.8,15.,4.8,5.,4.8,1.,4.8
1979-07-26 00:32:37.670 ,3,0,0.,4.8,12.,4.8,3.,4.8,1.,4.8
1979-07-26 00:32:42.470 ,3,0,0.,4.8,14.,4.8,2.,4.8,1.,4.8
1979-07-26 00:32:47.270 ,2,0,0.,4.8,25.,4.8,4.,4.8,2.,4.8
1979-07-26 00:32:52.070 ,2,0,0.,4.8,17.,4.8,3.,4.8,0.,4.8
1979-07-26 00:32:56.870 ,2,0,0.,4.8,49.,4.8,5.,4.8,2.,4.8
1979-07-26 00:33:01.670 ,2,0,0.,4.8,54.,4.8,8.,4.8,3.,4.8
1979-07-26 00:33:06.470 ,2,0,0.,4.8,49.,4.8,5.,4.8,1.,4.8
1979-07-26 00:33:11.270 ,2,0,0.,4.8,50.,4.8,1.,4.8,2.,4.8
1979-07-26 00:33:16.070 ,2,0,0.,4.8,43.,4.8,4.,4.8,4.,4.8
1979-07-26 00:33:20.870 ,2,0,0.,4.8,52.,4.8,7.,4.8,0.,4.8
1979-07-26 00:33:25.670 ,2,0,0.,4.8,48.,4.8,5.,4.8,1.,4.8
1979-07-26 00:33:30.470 ,2,0,0.,4.8,57.,4.8,10.,4.8,2.,4.8
1979-07-26 00:33:35.270 ,1,0,0.,4.8,51.,4.8,9.,4.8,4.,4.8
1979-07-26 00:33:40.070 ,1,0,0.,4.8,46.,4.8,5.,4.8,1.,4.8
1979-07-26 00:33:44.870 ,1,0,0.,4.8,112.,4.8,16.,4.8,4.,4.8